| time (UTC) | temp C | wind direction | speed KPH | gust KPH | rain 1hr cm | rain 24hr cm | rain mn cm | humidity % | barometer mb |
| 20260905081536 | 25 | 254 | 0.0 | 1.6 | 0.00 | 0.00 | 0.00 | 52 | 1025.1 |
| 20260905080034 | 25 | 253 | 1.6 | 6.4 | 0.00 | 0.00 | 0.00 | 53 | 1025.0 |
| 20260905074525 | 25 | 252 | 0.0 | 3.2 | 0.00 | 0.00 | 0.00 | 55 | 1025.1 |
| 20260905073024 | 23 | 252 | 0.0 | 4.8 | 0.00 | 0.00 | 0.00 | 58 | 1025.3 |
| 20260905071532 | 23 | 296 | 0.0 | 0.0 | 0.00 | 0.00 | 0.00 | 61 | 1025.3 |
| 20260905070024 | 22 | 260 | 0.0 | 0.0 | 0.00 | 0.00 | 0.00 | 64 | 1025.3 |
| 20260905064537 | 21 | 260 | 0.0 | 1.6 | 0.00 | 0.00 | 0.00 | 65 | 1025.2 |
| 20260905063021 | 20 | 259 | 0.0 | 3.2 | 0.00 | 0.00 | 0.00 | 68 | 1025.3 |
| 20260905061526 | 19 | 259 | 0.0 | 0.0 | 0.00 | 0.00 | 0.00 | 71 | 1025.3 |
| 20260905060015 | 18 | 252 | 0.0 | 0.0 | 0.00 | 0.00 | 0.00 | 72 | 1025.3 |
| 20260905054545 | 17 | 249 | 0.0 | 0.0 | 0.00 | 0.00 | 0.00 | 73 | 1025.1 |
| 20260905053032 | 17 | 286 | 0.0 | 0.0 | 0.00 | 0.00 | 0.00 | 74 | 1025.1 |
| 20260905051521 | 16 | 223 | 0.0 | 1.6 | 0.00 | 0.00 | 0.00 | 75 | 1024.9 |
| 20260905050027 | 16 | 209 | 0.0 | 6.4 | 0.00 | 0.00 | 0.00 | 75 | 1024.9 |
| 20260905044539 | 16 | 213 | 0.0 | 1.6 | 0.00 | 0.00 | 0.00 | 73 | 1024.9 |
| 20260905043028 | 17 | 214 | 0.0 | 8.0 | 0.00 | 0.00 | 0.00 | 72 | 1024.9 |
| 20260905041519 | 17 | 215 | 0.0 | 3.2 | 0.00 | 0.00 | 0.00 | 72 | 1024.6 |
| 20260905040028 | 17 | 213 | 3.2 | 9.7 | 0.00 | 0.00 | 0.00 | 72 | 1024.8 |
| 20260905034526 | 17 | 215 | 3.2 | 6.4 | 0.00 | 0.00 | 0.00 | 72 | 1024.8 |
| 20260905033046 | 17 | 215 | 0.0 | 0.0 | 0.00 | 0.00 | 0.00 | 72 | 1024.8 |
| 20260905031536 | 17 | 215 | 0.0 | 0.0 | 0.00 | 0.00 | 0.00 | 72 | 1024.8 |
| 20260905030040 | 17 | 215 | 0.0 | 3.2 | 0.00 | 0.00 | 0.00 | 72 | 1025.0 |
| 20260905024528 | 17 | 215 | 0.0 | 0.0 | 0.00 | 0.00 | 0.00 | 71 | 1025.0 |
| 20260905023028 | 17 | 216 | 0.0 | 0.0 | 0.00 | 0.00 | 0.00 | 71 | 1025.0 |
| 20260905021521 | 18 | 218 | 0.0 | 0.0 | 0.00 | 0.00 | 0.00 | 71 | 1025.0 |
| 20260905020025 | 18 | 221 | 0.0 | 0.0 | 0.00 | 0.00 | 0.00 | 71 | 1025.0 |
| 20260905014545 | 17 | 221 | 1.6 | 4.8 | 0.00 | 0.00 | 0.00 | 70 | 1025.1 |
| 20260905013031 | 18 | 224 | 4.8 | 8.0 | 0.00 | 0.00 | 0.00 | 70 | 1025.1 |
| 20260905011543 | 18 | 229 | 4.8 | 8.0 | 0.00 | 0.00 | 0.00 | 69 | 1025.1 |
| 20260905010023 | 18 | 229 | 3.2 | 9.7 | 0.00 | 0.00 | 0.00 | 69 | 1025.0 |
| 20260905004533 | 18 | 227 | 6.4 | 9.7 | 0.00 | 0.00 | 0.00 | 69 | 1025.0 |
| 20260905003022 | 18 | 233 | 6.4 | 12.9 | 0.00 | 0.00 | 0.00 | 68 | 1025.0 |
| 20260905001532 | 20 | 229 | 4.8 | 11.3 | 0.00 | 0.00 | 0.00 | 66 | 1025.1 |
| 20260905000041 | 19 | 227 | 6.4 | 9.7 | 0.00 | 0.00 | 0.00 | 66 | 1025.0 |
| 20260904234515 | 20 | 223 | 6.4 | 9.7 | 0.00 | 0.00 | 0.00 | 65 | 1025.2 |
| 20260904233023 | 20 | 226 | 0.0 | 1.6 | 0.00 | 0.00 | 0.00 | 65 | 1025.2 |
| 20260904231513 | 20 | 227 | 0.0 | 0.0 | 0.00 | 0.00 | 0.00 | 64 | 1025.1 |
| 20260904230025 | 21 | 227 | 0.0 | 1.6 | 0.00 | 0.00 | 0.00 | 64 | 1025.2 |
| 20260904224556 | 21 | 227 | 0.0 | 0.0 | 0.00 | 0.00 | 0.00 | 63 | 1025.3 |
| 20260904223035 | 21 | 225 | 0.0 | 0.0 | 0.00 | 0.00 | 0.00 | 62 | 1025.2 |
| 20260904221521 | 21 | 225 | 0.0 | 0.0 | 0.00 | 0.00 | 0.00 | 62 | 1025.3 |
| 20260904220048 | 21 | 225 | 0.0 | 6.4 | 0.00 | 0.00 | 0.00 | 61 | 1025.1 |
| 20260904214538 | 22 | 227 | 4.8 | 8.0 | 0.00 | 0.00 | 0.00 | 61 | 1025.1 |
| 20260904213029 | 22 | 227 | 6.4 | 8.0 | 0.00 | 0.00 | 0.00 | 60 | 1025.0 |
| 20260904211539 | 22 | 227 | 6.4 | 9.7 | 0.00 | 0.00 | 0.00 | 59 | 1025.0 |
| 20260904210025 | 23 | 225 | 6.4 | 11.3 | 0.00 | 0.00 | 0.00 | 57 | 1025.1 |
| 20260904204556 | 23 | 225 | 3.2 | 8.0 | 0.00 | 0.00 | 0.00 | 55 | 1025.1 |
| 20260904203023 | 24 | 228 | 4.8 | 9.7 | 0.00 | 0.00 | 0.00 | 54 | 1025.2 |
| 20260904201515 | 24 | 229 | 3.2 | 8.0 | 0.00 | 0.00 | 0.00 | 54 | 1025.1 |
| 20260904200024 | 25 | 231 | 4.8 | 8.0 | 0.00 | 0.00 | 0.00 | 53 | 1025.1 |
| 20260904194541 | 25 | 231 | 3.2 | 6.4 | 0.00 | 0.00 | 0.00 | 52 | 1025.1 |
| 20260904193025 | 25 | 233 | 4.8 | 14.5 | 0.00 | 0.00 | 0.00 | 50 | 1025.0 |
| 20260904191554 | 25 | 225 | 6.4 | 16.1 | 0.00 | 0.00 | 0.00 | 51 | 1024.7 |
| 20260904190020 | 26 | 223 | 6.4 | 19.3 | 0.00 | 0.00 | 0.00 | 51 | 1024.6 |
| 20260904184525 | 26 | 255 | 9.7 | 22.5 | 0.00 | 0.00 | 0.00 | 50 | 1024.3 |
| 20260904183029 | 26 | 252 | 11.3 | 22.5 | 0.00 | 0.00 | 0.00 | 49 | 1024.1 |
| 20260904181523 | 26 | 244 | 9.7 | 19.3 | 0.00 | 0.00 | 0.00 | 49 | 1023.9 |
| 20260904180029 | 26 | 248 | 8.0 | 16.1 | 0.00 | 0.00 | 0.00 | 49 | 1023.6 |
| 20260904174516 | 27 | 249 | 8.0 | 16.1 | 0.00 | 0.00 | 0.00 | 48 | 1023.4 |
| 20260904173029 | 27 | 248 | 6.4 | 14.5 | 0.00 | 0.00 | 0.00 | 47 | 1023.3 |
| 20260904171536 | 28 | 242 | 8.0 | 14.5 | 0.00 | 0.00 | 0.00 | 45 | 1023.4 |
| 20260904170021 | 29 | 291 | 11.3 | 17.7 | 0.00 | 0.00 | 0.00 | 44 | 1023.4 |
| 20260904164535 | 30 | 288 | 8.0 | 22.5 | 0.00 | 0.00 | 0.00 | 41 | 1023.3 |
| 20260904163039 | 30 | 252 | 9.7 | 22.5 | 0.00 | 0.00 | 0.00 | 38 | 1023.3 |
| 20260904161521 | 32 | 161 | 6.4 | 11.3 | 0.00 | 0.00 | 0.00 | 26 | 1023.1 |
| 20260904160028 | 32 | 161 | 1.6 | 14.5 | 0.00 | 0.00 | 0.00 | 25 | 1023.1 |
| 20260904154541 | 32 | 159 | 9.7 | 12.9 | 0.00 | 0.00 | 0.00 | 25 | 1023.2 |
| 20260904153046 | 32 | 159 | 1.6 | 11.3 | 0.00 | 0.00 | 0.00 | 26 | 1023.1 |
| 20260904151514 | 33 | 158 | 6.4 | 14.5 | 0.00 | 0.00 | 0.00 | 24 | 1023.2 |
| 20260904150044 | 33 | 141 | 1.6 | 4.8 | 0.00 | 0.00 | 0.00 | 23 | 1023.3 |
| 20260904144524 | 33 | 140 | 0.0 | 6.4 | 0.00 | 0.00 | 0.00 | 23 | 1023.3 |
| 20260904143030 | 33 | 140 | 0.0 | 6.4 | 0.00 | 0.00 | 0.00 | 23 | 1023.4 |
| 20260904141522 | 33 | 139 | 3.2 | 6.4 | 0.00 | 0.00 | 0.00 | 23 | 1023.5 |
| 20260904140032 | 33 | 139 | 1.6 | 8.0 | 0.00 | 0.00 | 0.00 | 24 | 1023.6 |
| 20260904134517 | 33 | 139 | 3.2 | 11.3 | 0.00 | 0.00 | 0.00 | 23 | 1023.7 |
| 20260904133031 | 33 | 142 | 1.6 | 11.3 | 0.00 | 0.00 | 0.00 | 25 | 1023.7 |
| 20260904131522 | 32 | 141 | 0.0 | 6.4 | 0.00 | 0.00 | 0.00 | 22 | 1023.7 |
| 20260904130028 | 32 | 141 | 1.6 | 14.5 | 0.00 | 0.00 | 0.00 | 24 | 1023.9 |
| 20260904124542 | 32 | 142 | 4.8 | 12.9 | 0.00 | 0.00 | 0.00 | 24 | 1024.1 |
| 20260904123029 | 32 | 126 | 3.2 | 12.9 | 0.00 | 0.00 | 0.00 | 25 | 1024.3 |
| 20260904121517 | 32 | 151 | 3.2 | 12.9 | 0.00 | 0.00 | 0.00 | 27 | 1024.4 |
| 20260904120046 | 31 | 151 | 4.8 | 12.9 | 0.00 | 0.00 | 0.00 | 28 | 1024.5 |
| 20260904114532 | 31 | 151 | 3.2 | 12.9 | 0.00 | 0.00 | 0.00 | 29 | 1024.5 |
| 20260904113038 | 31 | 150 | 3.2 | 11.3 | 0.00 | 0.00 | 0.00 | 28 | 1024.5 |
| 20260904111526 | 31 | 130 | 4.8 | 16.1 | 0.00 | 0.00 | 0.00 | 29 | 1024.8 |
| 20260904110027 | 31 | 152 | 3.2 | 17.7 | 0.00 | 0.00 | 0.00 | 30 | 1024.9 |
| 20260904104517 | 30 | 158 | 1.6 | 12.9 | 0.00 | 0.00 | 0.00 | 32 | 1024.9 |
| 20260904103031 | 30 | 157 | 3.2 | 11.3 | 0.00 | 0.00 | 0.00 | 33 | 1025.1 |
| 20260904101521 | 30 | 156 | 3.2 | 12.9 | 0.00 | 0.00 | 0.00 | 33 | 1025.1 |
| 20260904100049 | 29 | 159 | 4.8 | 12.9 | 0.00 | 0.00 | 0.00 | 32 | 1025.3 |
| 20260904094538 | 29 | 161 | 3.2 | 9.7 | 0.00 | 0.00 | 0.00 | 35 | 1025.4 |
| 20260904093040 | 28 | 161 | 4.8 | 9.7 | 0.00 | 0.00 | 0.00 | 35 | 1025.4 |
| 20260904091525 | 27 | 161 | 1.6 | 8.0 | 0.00 | 0.00 | 0.00 | 39 | 1025.5 |
| 20260904090053 | 27 | 161 | 4.8 | 11.3 | 0.00 | 0.00 | 0.00 | 39 | 1025.5 |
| 20260904084526 | 26 | 161 | 1.6 | 4.8 | 0.00 | 0.00 | 0.00 | 41 | 1025.6 |
| 20260904083030 | 26 | 137 | 0.0 | 4.8 | 0.00 | 0.00 | 0.00 | 45 | 1025.6 |